Flag for Kazakhstan Weather past 2 weeks in Astana, Kazakhstan

Now
59 °F

Passing clouds.


Feels Like: 58 °F
Forecast: 35 / 64 °F
Wind: 8 mph from Northeast

Location: Astana

Current Time: Sep 2, 2014 at 5:39:48 PM

Latest Report: Sep 2, 2014 at 5:00 PM


Visibility: N/A

Pressure: 30.18 "Hg

Humidity: 34%

Dew point: 30 °F

Location of AstanaLocation

Historic Weather in Astana — Graph

°F

Astana temperature yesterday

Maximum temperature yesterday: 75 °F (at 2:00 PM)
Minimum temperature yesterday: 55 °F (at 11:30 PM)
Average temperature yesterday: 66 °F

Past Weeks' High & Low Weather Summary

 TemperatureHumidityPressure
High100 °F (Aug 24, 2:30 PM)94% (Aug 20, 7:00 AM)30.24 "Hg (Aug 20, 7:00 AM)
Low41 °F (Aug 27, 6:00 AM)10% (Aug 19, 2:30 PM)29.71 "Hg (Aug 24, 7:00 PM)
Average71 °F46%29.98 "Hg
* Reported Aug 18 4:00 PM — Sep 2 4:30 PM, Astana, Weather by CustomWeather, © 2014

Note: Actual official high and low records may vary slightly from our data, if they occured in-between our weather recording intervals... More about our weather records

Advertising

Astana weather history for previous 24 hours

 ConditionsComfort  
Time TempWeatherWind HumidityBarometerVisibility
4:30 PM
Sep 2
59 °FSunny.13 mph34%30.18 "Hg10 mi
4:00 PM57 °FPassing clouds.13 mph36%30.21 "HgN/A
3:30 PM59 °FPassing clouds.10 mph34%30.18 "HgN/A
3:00 PM57 °FPassing clouds.10 mph36%30.18 "HgN/A
2:30 PM59 °FPassing clouds.10 mph34%30.18 "HgN/A
2:00 PM55 °FPassing clouds.13 mph38%30.18 "HgN/A
1:30 PM55 °FPassing clouds.10 mph38%30.18 "HgN/A
1:00 PM55 °FPassing clouds.15 mph38%30.18 "HgN/A
12:30 PM57 °FPassing clouds.13 mph36%30.18 "HgN/A
12:00 PM55 °FSunny.13 mph41%30.18 "Hg10 mi
11:30 AM55 °FSunny.13 mph38%30.18 "Hg10 mi
11:00 AM54 °FPartly sunny.13 mph44%30.18 "HgN/A
10:30 AM54 °FScattered clouds.13 mph47%30.15 "HgN/A
10:00 AM54 °FPassing clouds.10 mph54%30.15 "HgN/A
9:30 AM52 °FSunny.10 mph62%30.15 "Hg10 mi
8:30 AM48 °FSunny.10 mph71%30.12 "Hg10 mi
8:00 AM46 °FSunny.10 mph76%30.09 "Hg10 mi
7:30 AM45 °FSunny.10 mph87%30.09 "Hg10 mi
7:00 AM45 °FSunny.8 mph87%30.09 "Hg10 mi
6:30 AM45 °FSunny.8 mph87%30.07 "Hg10 mi
6:00 AM45 °FClear.6 mph93%30.07 "Hg10 mi
5:30 AM46 °FClear.6 mph93%30.04 "Hg10 mi
5:00 AM46 °FClear.8 mph87%30.04 "Hg10 mi
4:30 AM46 °FClear.6 mph87%30.04 "Hg10 mi
4:00 AM46 °FClear.8 mph87%30.01 "Hg10 mi
3:30 AM48 °FPassing clouds.10 mph87%30.01 "HgN/A
2:30 AM50 °FPassing clouds.13 mph82%29.98 "HgN/A
2:00 AM50 °FPassing clouds.15 mph82%29.98 "HgN/A
1:30 AM52 °FPassing clouds.8 mph88%29.98 "HgN/A
1:00 AM54 °FPartly cloudy.10 mph82%29.95 "HgN/A
12:30 AM54 °FPartly cloudy.10 mph77%29.95 "HgN/A
12:00 AM54 °FPartly cloudy.10 mph82%29.92 "HgN/A
11:30 PM
Sep 1
55 °FPartly cloudy.13 mph77%29.92 "HgN/A
11:00 PM57 °FPartly cloudy.13 mph72%29.92 "HgN/A
10:30 PM57 °FSprinkles. Mostly cloudy.15 mph72%29.92 "HgN/A
10:00 PM59 °FMostly cloudy.17 mph68%29.92 "HgN/A
9:30 PM59 °FMostly cloudy.20 mph68%29.86 "HgN/A
9:00 PM66 °FMostly cloudy.13 mph46%29.86 "HgN/A
8:30 PM70 °FOvercast.3 mph33%29.83 "HgN/A
8:00 PM70 °FPartly sunny.3 mph31%29.80 "HgN/A
7:30 PM70 °FPartly sunny.3 mph31%29.80 "HgN/A
7:00 PM73 °FPassing clouds.3 mph25%29.80 "HgN/A
6:30 PM72 °FSunny.6 mph27%29.80 "Hg10 mi
6:00 PM73 °FSunny.6 mph25%29.80 "Hg10 mi
5:30 PM75 °FSunny.8 mph22%29.80 "Hg10 mi
5:00 PM73 °FPassing clouds.8 mph23%29.80 "HgN/A
Weather by CustomWeather, © 2014

See weather overviewHow to use our weather pages